Location: Unspecified
(48.5670°N, 0.0000°E)
Time: 04:28:11
(UTC+00:00)

Altair - Pass Details

Date: 01 September 2019
Orbit: 1501 x 1683 km, 47.2° (Epoch: 14 October)

Event Time Altitude Azimuth Distance (km) Brightness Sun altitude
Exits shadow 01:16:40 59° 186° (S) 1,836 7.5 -30.6°
Maximum altitude 01:17:53 63° 155° (SSE) 1,780 7.5 -30.5°
Drops below altitude 10° 01:27:21 10° 78° (ENE) 3,784 10.0 -29.9°
Sets 01:30:24 0° 75° (ENE) 4,746 10.6 -29.6°
